[Date Prev][Date Next][Thread Prev][Thread Next] - [Date Index][Thread Index][Author Index]

2 Line ISS Keps 8-20



ISS
1 25544U 98067A   05232.13113012  .00013713  00000-0  10782-3 0  1813
2 25544 051.6455 293.5413 0000964 320.2473 127.0490 15.71829994385740
----
Via the sarex mailing list at AMSAT.ORG courtesy of AMSAT-NA.
To unsubscribe, send "unsubscribe sarex" to Majordomo@amsat.org



AMSAT Top AMSAT Home